SAS125 ENGM-ENCN

Flight info

Callsign SAS125
Flight time 0h 37m
Altitude 34000
Route VIPPA1A VIPPA DCT OSVAL OSVAL2L
Aircraft A20N/M-SDE2E3FGHIRWXY/LB1

Departure

Time 2026-05-06 00:02
Airport Oslo-Gardermoen International Airport (ENGM)

Arrival

Time 2026-05-06 00:40
Airport Kristiansand Airport (ENCN)
Time Latitude Longitude Altitude Speed Heading
2026-05-05 23:37 60.19529 11.09653 685 ft 0 kts 196°
2026-05-05 23:53 60.19540 11.09659 680 ft 4 kts 196°
2026-05-05 23:53 60.19566 11.09674 679 ft 4 kts 196°
2026-05-05 23:53 60.19577 11.09681 682 ft 0 kts 196°
2026-05-05 23:56 60.19576 11.09680 682 ft 1 kts 196°
2026-05-05 23:56 60.19568 11.09671 685 ft 1 kts 218°
2026-05-05 23:56 60.19574 11.09659 679 ft 1 kts 315°
2026-05-05 23:56 60.19609 11.09672 684 ft 11 kts
2026-05-05 23:57 60.19660 11.09550 683 ft 14 kts 285°
2026-05-05 23:57 60.19690 11.09338 683 ft 17 kts 286°
2026-05-05 23:57 60.19726 11.09091 681 ft 19 kts 286°
2026-05-05 23:57 60.19762 11.08839 678 ft 21 kts 286°
2026-05-05 23:58 60.19743 11.08654 679 ft 14 kts 205°
2026-05-05 23:58 60.19638 11.08594 678 ft 17 kts 195°
2026-05-05 23:58 60.19533 11.08533 678 ft 14 kts 197°
2026-05-05 23:58 60.19426 11.08470 677 ft 18 kts 196°
2026-05-05 23:59 60.19298 11.08398 675 ft 20 kts 196°
2026-05-05 23:59 60.19163 11.08317 674 ft 22 kts 197°
2026-05-05 23:59 60.19010 11.08234 673 ft 22 kts 194°
2026-05-05 23:59 60.18865 11.08145 670 ft 23 kts 196°
2026-05-06 00:00 60.18712 11.08057 671 ft 22 kts 195°
2026-05-06 00:00 60.18591 11.07989 670 ft 14 kts 195°
2026-05-06 00:00 60.18537 11.07905 669 ft 11 kts 265°
2026-05-06 00:00 60.18562 11.07709 665 ft 17 kts 287°
2026-05-06 00:01 60.18592 11.07529 664 ft 14 kts 297°
2026-05-06 00:01 60.18682 11.07480 667 ft 14 kts 15°
2026-05-06 00:01 60.18774 11.07534 667 ft 28 kts 16°
2026-05-06 00:01 60.19204 11.07780 671 ft 97 kts 16°
2026-05-06 00:02 60.20026 11.08254 677 ft 147 kts 16°
2026-05-06 00:02 60.21075 11.08855 1053 ft 158 kts 15°
2026-05-06 00:02 60.22144 11.09467 1712 ft 162 kts 14°
2026-05-06 00:02 60.23268 11.10093 2190 ft 176 kts 13°
2026-05-06 00:03 60.24521 11.10796 2501 ft 198 kts 14°
2026-05-06 00:03 60.25941 11.11372 2836 ft 220 kts 359°
2026-05-06 00:03 60.27468 11.10503 3229 ft 243 kts 325°
2026-05-06 00:03 60.28500 11.07768 3928 ft 255 kts 287°
2026-05-06 00:04 60.28505 11.04218 4828 ft 259 kts 252°
2026-05-06 00:04 60.27785 11.00874 5822 ft 261 kts 243°
2026-05-06 00:04 60.26914 10.97668 6815 ft 262 kts 240°
2026-05-06 00:04 60.25993 10.94491 7745 ft 264 kts 240°
2026-05-06 00:05 60.24139 10.88051 9584 ft 268 kts 242°
2026-05-06 00:05 60.23217 10.84754 10292 ft 278 kts 242°
2026-05-06 00:05 60.22255 10.81256 10539 ft 300 kts 243°
2026-05-06 00:06 60.21210 10.77430 10756 ft 322 kts 243°
2026-05-06 00:06 60.19975 10.73594 11311 ft 333 kts 230°
2026-05-06 00:06 60.18130 10.70688 12025 ft 342 kts 212°
2026-05-06 00:06 60.16010 10.68451 12772 ft 346 kts 210°
2026-05-06 00:07 60.13854 10.66248 13498 ft 349 kts 210°
2026-05-06 00:07 60.11668 10.64032 14070 ft 355 kts 211°
2026-05-06 00:07 60.09461 10.61797 14809 ft 355 kts 211°
2026-05-06 00:07 60.07253 10.59561 15486 ft 356 kts 212°
2026-05-06 00:08 60.05032 10.57312 16151 ft 357 kts 212°
2026-05-06 00:08 60.02811 10.55057 16799 ft 359 kts 213°
2026-05-06 00:08 60.00579 10.52789 17506 ft 361 kts 213°
2026-05-06 00:08 59.98337 10.50513 18228 ft 363 kts 214°
2026-05-06 00:09 59.96079 10.48228 18865 ft 365 kts 214°
2026-05-06 00:09 59.93807 10.45931 19520 ft 366 kts 214°
2026-05-06 00:09 59.91533 10.43639 20172 ft 367 kts 214°
2026-05-06 00:09 59.89249 10.41345 20792 ft 368 kts 214°
2026-05-06 00:10 59.86957 10.39042 21390 ft 369 kts 215°
2026-05-06 00:10 59.84658 10.36739 21957 ft 371 kts 215°
2026-05-06 00:10 59.82351 10.34427 22502 ft 372 kts 215°
2026-05-06 00:10 59.80035 10.32109 23031 ft 374 kts 215°
2026-05-06 00:11 59.77737 10.29809 23543 ft 375 kts 215°
2026-05-06 00:11 59.75402 10.27471 23897 ft 378 kts 214°
2026-05-06 00:11 59.73043 10.25117 24294 ft 380 kts 214°
2026-05-06 00:11 59.70674 10.22768 24683 ft 382 kts 214°
2026-05-06 00:12 59.68288 10.20406 25072 ft 384 kts 214°
2026-05-06 00:12 59.65896 10.18039 25450 ft 385 kts 214°
2026-05-06 00:12 59.63494 10.15664 25828 ft 387 kts 214°
2026-05-06 00:12 59.61081 10.13281 26205 ft 389 kts 214°
2026-05-06 00:13 59.58656 10.10888 26582 ft 390 kts 214°
2026-05-06 00:13 59.56221 10.08487 26974 ft 392 kts 214°
2026-05-06 00:13 59.53775 10.06079 27342 ft 394 kts 214°
2026-05-06 00:13 59.51317 10.03665 27688 ft 396 kts 214°
2026-05-06 00:14 59.48845 10.01250 27978 ft 398 kts 214°
2026-05-06 00:14 59.46355 9.98825 28312 ft 400 kts 214°
2026-05-06 00:14 59.43855 9.96389 28622 ft 402 kts 214°
2026-05-06 00:14 59.41353 9.93954 29081 ft 400 kts 214°
2026-05-06 00:15 59.38860 9.91538 29603 ft 398 kts 214°
2026-05-06 00:15 59.36377 9.89134 29939 ft 397 kts 214°
2026-05-06 00:15 59.33899 9.86733 29986 ft 396 kts 214°
2026-05-06 00:16 59.28994 9.81976 29984 ft 395 kts 214°
2026-05-06 00:16 59.24061 9.77207 29982 ft 395 kts 214°
2026-05-06 00:17 59.19111 9.72445 29985 ft 397 kts 213°
2026-05-06 00:17 59.14983 9.68494 29986 ft 397 kts 213°
2026-05-06 00:18 59.10021 9.63761 29989 ft 397 kts 213°
2026-05-06 00:18 59.05053 9.59038 29995 ft 397 kts 213°
2026-05-06 00:19 59.00087 9.54322 29986 ft 397 kts 213°
2026-05-06 00:19 58.95127 9.49616 29966 ft 398 kts 213°
2026-05-06 00:20 58.90170 9.44929 29868 ft 399 kts 213°
2026-05-06 00:20 58.87653 9.42557 29560 ft 404 kts 212°
2026-05-06 00:20 58.85134 9.40193 29267 ft 395 kts 212°
2026-05-06 00:20 58.82702 9.37929 28993 ft 382 kts 213°
2026-05-06 00:21 58.80345 9.35746 28703 ft 371 kts 213°
2026-05-06 00:21 58.78052 9.33619 28426 ft 360 kts 213°
2026-05-06 00:21 58.75825 9.31544 28151 ft 352 kts 213°
2026-05-06 00:21 58.73636 9.29498 27718 ft 349 kts 213°
2026-05-06 00:22 58.71370 9.27348 26772 ft 373 kts 213°
2026-05-06 00:22 58.69054 9.25162 26223 ft 379 kts 212°
2026-05-06 00:22 58.66680 9.22949 25654 ft 379 kts 212°
2026-05-06 00:22 58.64302 9.20759 25037 ft 377 kts 212°
2026-05-06 00:23 58.61937 9.18593 24415 ft 375 kts 212°
2026-05-06 00:23 58.59588 9.16439 23805 ft 373 kts 212°
2026-05-06 00:23 58.57250 9.14288 23136 ft 372 kts 212°
2026-05-06 00:23 58.54929 9.12148 22540 ft 369 kts 212°
2026-05-06 00:24 58.52622 9.10025 21925 ft 367 kts 212°
2026-05-06 00:24 58.50326 9.07915 21334 ft 365 kts 212°
2026-05-06 00:24 58.48081 9.05685 20740 ft 360 kts 217°
2026-05-06 00:24 58.46051 9.02950 20160 ft 355 kts 225°
2026-05-06 00:25 58.44201 8.99858 19613 ft 352 kts 226°
2026-05-06 00:25 58.42365 8.96770 19079 ft 351 kts 226°
2026-05-06 00:25 58.40536 8.93704 18569 ft 349 kts 226°
2026-05-06 00:25 58.38715 8.90662 18021 ft 347 kts 226°
2026-05-06 00:26 58.36907 8.87652 17519 ft 344 kts 226°
2026-05-06 00:26 58.35107 8.84665 17037 ft 342 kts 226°
2026-05-06 00:26 58.33321 8.81703 16553 ft 340 kts 225°
2026-05-06 00:26 58.31543 8.78757 16075 ft 338 kts 225°
2026-05-06 00:27 58.29769 8.75820 15585 ft 337 kts 225°
2026-05-06 00:27 58.28007 8.72906 15095 ft 335 kts 225°
2026-05-06 00:27 58.26249 8.70006 14591 ft 334 kts 225°
2026-05-06 00:27 58.24519 8.67162 14103 ft 333 kts 224°
2026-05-06 00:28 58.22773 8.64293 13558 ft 331 kts 224°
2026-05-06 00:28 58.21037 8.61434 13019 ft 330 kts 224°
2026-05-06 00:28 58.19306 8.58584 12496 ft 329 kts 224°
2026-05-06 00:28 58.17582 8.55750 11966 ft 328 kts 224°
2026-05-06 00:29 58.15859 8.52932 11439 ft 327 kts 223°
2026-05-06 00:29 58.14140 8.50127 10930 ft 325 kts 223°
2026-05-06 00:29 58.12461 8.47389 10777 ft 311 kts 223°
2026-05-06 00:29 58.10854 8.44776 10638 ft 296 kts 223°
2026-05-06 00:30 58.09330 8.42302 10490 ft 284 kts 223°
2026-05-06 00:30 58.07846 8.39890 10239 ft 279 kts 223°
2026-05-06 00:30 58.06383 8.37515 9990 ft 276 kts 223°
2026-05-06 00:30 58.04929 8.35155 9841 ft 276 kts 223°
2026-05-06 00:31 58.03472 8.32785 9702 ft 276 kts 223°
2026-05-06 00:31 58.02038 8.30451 9564 ft 276 kts 223°
2026-05-06 00:31 58.00526 8.28227 9429 ft 276 kts 217°
2026-05-06 00:31 57.98955 8.26139 9259 ft 276 kts 217°
2026-05-06 00:32 57.97380 8.24050 8854 ft 277 kts 217°
2026-05-06 00:32 57.95802 8.21958 8434 ft 277 kts 217°
2026-05-06 00:32 57.94342 8.19657 8050 ft 274 kts 233°
2026-05-06 00:32 57.93545 8.16475 7749 ft 268 kts 259°
2026-05-06 00:33 57.93580 8.12990 7270 ft 271 kts 286°
2026-05-06 00:33 57.94424 8.09851 6857 ft 273 kts 303°
2026-05-06 00:33 57.95505 8.06943 6601 ft 269 kts 304°
2026-05-06 00:33 57.96603 8.04041 5948 ft 275 kts 304°
2026-05-06 00:34 57.97697 8.01160 5474 ft 265 kts 304°
2026-05-06 00:34 57.98750 7.98379 5056 ft 255 kts 304°
2026-05-06 00:34 57.99756 7.95701 4672 ft 246 kts 304°
2026-05-06 00:34 58.00703 7.93167 4424 ft 230 kts 304°
2026-05-06 00:35 58.01581 7.90813 4362 ft 211 kts 305°
2026-05-06 00:35 58.02446 7.88615 4278 ft 205 kts 315°
2026-05-06 00:35 58.03660 7.87473 4186 ft 194 kts 355°
2026-05-06 00:35 58.04953 7.88074 3928 ft 196 kts 33°
2026-05-06 00:36 58.06065 7.89555 3646 ft 196 kts 34°
2026-05-06 00:36 58.07178 7.91034 3372 ft 195 kts 34°
2026-05-06 00:36 58.08287 7.92498 3116 ft 192 kts 34°
2026-05-06 00:36 58.09353 7.93909 2940 ft 184 kts 34°
2026-05-06 00:37 58.10384 7.95274 2669 ft 177 kts 33°
2026-05-06 00:37 58.11369 7.96574 2436 ft 169 kts 33°
2026-05-06 00:37 58.12318 7.97825 2172 ft 164 kts 32°
2026-05-06 00:37 58.13243 7.99045 1908 ft 158 kts 32°
2026-05-06 00:38 58.14119 8.00200 1647 ft 152 kts 32°
2026-05-06 00:38 58.14967 8.01316 1383 ft 144 kts 32°
2026-05-06 00:38 58.15775 8.02378 1145 ft 138 kts 34°
2026-05-06 00:38 58.16553 8.03421 928 ft 137 kts 34°
2026-05-06 00:39 58.17327 8.04463 752 ft 138 kts 34°
2026-05-06 00:39 58.18120 8.05502 535 ft 138 kts 32°
2026-05-06 00:39 58.18903 8.06527 312 ft 138 kts 33°
2026-05-06 00:39 58.19689 8.07571 98 ft 138 kts 33°
2026-05-06 00:40 58.20424 8.08527 51 ft 106 kts 36°
2026-05-06 00:40 58.20795 8.09029 55 ft 38 kts 35°
2026-05-06 00:40 58.20936 8.09233 60 ft 14 kts 41°
2026-05-06 00:40 58.20987 8.09291 55 ft 2 kts 318°
2026-05-06 00:41 58.20954 8.09228 57 ft 12 kts 211°
2026-05-06 00:41 58.20869 8.09124 54 ft 17 kts 215°
2026-05-06 00:41 58.20786 8.09014 55 ft 15 kts 214°
2026-05-06 00:41 58.20687 8.08884 54 ft 20 kts 215°
2026-05-06 00:42 58.20574 8.08735 53 ft 21 kts 214°
2026-05-06 00:42 58.20454 8.08579 52 ft 15 kts 217°
2026-05-06 00:42 58.20420 8.08398 53 ft 15 kts 290°
2026-05-06 00:42 58.20473 8.08242 54 ft 13 kts 292°
2026-05-06 00:43 58.20444 8.08083 53 ft 15 kts 232°
2026-05-06 00:43 58.20387 8.07946 53 ft 11 kts 231°
2026-05-06 00:43 58.20341 8.07836 52 ft 12 kts 231°
2026-05-06 00:43 58.20282 8.07711 52 ft 11 kts 218°
2026-05-06 00:44 58.20235 8.07654 50 ft 1 kts 211°
2026-05-06 00:44 58.20229 8.07623 51 ft 4 kts 262°
2026-05-06 00:44 58.20237 8.07585 48 ft 2 kts 306°
2026-05-06 00:44 58.20245 8.07560 51 ft 2 kts 302°
2026-05-06 00:45 58.20247 8.07553 51 ft 0 kts 302°